Retour au catalogue

ARIANE 42P+ DEB

ActifHEO
NORAD 26850·DEBRIS·🇫🇷 France

Lancé Oct 28, 1992 depuis Guiana Space Centre

Loading…

Prochains Passages (prochaines 24 heures)

TLE

FraisSource: Space-Track

Époque: Sep 13, 2026, 06:18 UTC

1 26850U 92072K   26256.26274392  .00000574  00000-0  41287-1 0  9996
2 26850   7.2672 131.8742 6452047 169.1390 217.6557  2.89973903286177

Suivez ARIANE 42P+ DEB en temps réel avec AllMySat

Download on the App Store